This is the latest recevied weather packets stored in our database for station/object VA2EYZ-13. If no packets are shown the sender has not sent any weather packets the latest 10 day(s).
| Time | Temp. | Humidity | Pressure | Rain* | Wind** | Luminosity | Snow |
|---|---|---|---|---|---|---|---|
| 1788349735 | 16.67° C | 87% | 1017.8 hPa | - | - | - | - |
| 1788348234 | 16.67° C | 87% | 1018 hPa | - | - | - | - |
| 1788347407 | 16.67° C | 88% | 1018 hPa | - | - | - | - |
| 1788346142 | 15.56° C | 88% | 1018.4 hPa | - | - | - | - |
| 1788345838 | 15° C | 88% | 1018 hPa | - | - | - | - |
| 1788344961 | 15° C | 88% | 1018 hPa | - | - | - | - |
| 1788344454 | 14.44° C | 88% | 1018 hPa | - | - | - | - |
| 1788342943 | 14.44° C | 88% | 1018.2 hPa | - | - | - | - |
| 1788341974 | 14.44° C | 88% | 1017 hPa | - | - | - | - |
| 1788338059 | 15° C | 86% | 1018.1 hPa | - | - | - | - |
| 1788334531 | 15° C | 84% | 1018 hPa | - | - | - | - |
| 1788333973 | 15.56° C | 84% | 1018 hPa | - | - | - | - |
| 1788332807 | 15.56° C | 84% | 1017.8 hPa | - | - | - | - |
| 1788332473 | 15.56° C | 84% | 1017 hPa | - | - | - | - |
| 1788328989 | 16.67° C | 82% | 1018 hPa | - | - | - | - |
| 1788327714 | 16.67° C | 81% | 1018.1 hPa | - | - | - | - |
| 1788326718 | 16.67° C | 81% | 1018.1 hPa | - | - | - | - |
| 1788323715 | 17.22° C | 79% | 1018 hPa | - | - | - | - |
| 1788321797 | 17.78° C | 78% | 1018 hPa | - | - | - | - |
| 1788321370 | 17.78° C | 78% | 1017 hPa | - | - | - | - |
| 1788319445 | 17.78° C | 78% | 1017 hPa | - | - | - | - |
| 1788318208 | 17.78° C | 78% | 1017 hPa | - | - | - | - |
| 1788314198 | 18.33° C | 75% | 1016 hPa | - | - | - | - |
| 1788313607 | 18.33° C | 74% | 1016 hPa | - | - | - | - |
| 1788313303 | 18.33° C | 74% | 1016.7 hPa | - | - | - | - |
* Rain since midnight (hover to see other rain measurements)
** Current wind speed in m/s (hover to see current wind gust speed)